This is the latest recevied weather packets stored in our database for station/object KF7U. If no packets are shown the sender has not sent any weather packets the latest 10 day(s).
| Time | Temp. | Humidity | Pressure | Rain* | Wind** | Luminosity | Snow |
|---|---|---|---|---|---|---|---|
| 1777931254 | 25° C | 36% | 1010.8 hPa | 0 mm | - | 279 W/m² | - |
| 1777930954 | 25° C | 36% | 1010.8 hPa | 0 mm | - | 309 W/m² | - |
| 1777930655 | 25° C | 36% | 1010.8 hPa | 0 mm | - | 298 W/m² | - |
| 1777930355 | 25° C | 36% | 1010.8 hPa | 0 mm | - | 274 W/m² | - |
| 1777930057 | 25.56° C | 35% | 1011.2 hPa | 0 mm | - | 283 W/m² | - |
| 1777929754 | 25.56° C | 35% | 1010.8 hPa | 0 mm | - | 297 W/m² | - |
| 1777929455 | 26.11° C | 35% | 1010.8 hPa | 0 mm | - | 318 W/m² | - |
| 1777929154 | 26.11° C | 35% | 1010.8 hPa | 0 mm | - | 370 W/m² | - |
| 1777928857 | 26.11° C | 34% | 1010.8 hPa | 0 mm | - | 359 W/m² | - |
| 1777928555 | 26.11° C | 34% | 1010.8 hPa | 0 mm | - | 382 W/m² | - |
| 1777928255 | 26.11° C | 34% | 1010.8 hPa | 0 mm | - | 413 W/m² | - |
| 1777927954 | 26.11° C | 34% | 1010.5 hPa | 0 mm | - | 452 W/m² | - |
| 1777927654 | 26.67° C | 34% | 1010.5 hPa | 0 mm | - | 497 W/m² | - |
| 1777927355 | 26.67° C | 34% | 1010.8 hPa | 0 mm | - | 594 W/m² | - |
| 1777927055 | 26.67° C | 33% | 1010.5 hPa | 0 mm | - | 597 W/m² | - |
| 1777926754 | 26.67° C | 34% | 1010.8 hPa | 0 mm | - | 623 W/m² | - |
| 1777926455 | 26.67° C | 34% | 1010.8 hPa | 0 mm | - | 638 W/m² | - |
| 1777926155 | 26.11° C | 33% | 1010.8 hPa | 0 mm | - | 485 W/m² | - |
| 1777925855 | 26.11° C | 33% | 1010.5 hPa | 0 mm | - | 457 W/m² | - |
| 1777925554 | 26.11° C | 33% | 1010.5 hPa | 0 mm | - | 416 W/m² | - |
| 1777925255 | 26.11° C | 33% | 1010.8 hPa | 0 mm | - | 373 W/m² | - |
| 1777924955 | 26.67° C | 33% | 1010.8 hPa | 0 mm | - | 411 W/m² | - |
| 1777924655 | 26.67° C | 32% | 1011.2 hPa | 0 mm | - | 468 W/m² | - |
| 1777924354 | 26.67° C | 31% | 1011.2 hPa | 0 mm | - | 458 W/m² | - |
| 1777924054 | 27.22° C | 30% | 1011.2 hPa | 0 mm | - | 479 W/m² | - |
* Rain latest hour (hover to see other rain measurements)
** Current wind speed in m/s (hover to see current wind gust speed)